Miscellaneous Local Product
Issued by NWS Hastings, NE

Home | Current Version | Previous Version | Graphics & Text | Print | Product List | Glossary On
Versions: 1 2 3 4 5 6 7 8 9 10 11 12 13 14 15 16 17 18 19 20 21 22 23 24 25 26 27 28 29 30 31 32 33 34 35 36 37 38 39 40 41 42 43 44 45 46 47 48 49 50
000
AXUS43 KGID 220102
MISGRI

GID CWA HOURLY WEATHER ROUNDUP
NATIONAL WEATHER SERVICE HASTINGS NE
800 PM CDT THU MAY 21 2015

NOTE: "FAIR" INDICATES FEW OR NO CLOUDS BELOW 12,000 FEET WITH NO
SIGNIFICANT WEATHER AND/OR OBSTRUCTIONS TO VISIBILITY.

...SOUTH CENTRAL NEBRASKA...

CITY           SKY/WX    TMP DP  RH WIND       PRES   REMARKS
GRAND ISLAND   CLEAR     63  38  39 SW5       30.19S
HASTINGS       CLEAR     62  35  36 S5        30.18F
KEARNEY        CLEAR     63  37  39 S7        30.18S
ORD            CLEAR     63  32  31 S7        30.16F
YORK           CLEAR     64  37  36 CALM      30.19S
AURORA         CLEAR     64  35  34 CALM      30.18F
LEXINGTON      PTCLDY    59  41  51 S7        30.18S
HOLDREGE       MOCLDY    61  35  38 S8        30.18S
HEBRON         CLEAR     65  32  29 CALM      30.19S

...NEBRASKA PANHANDLE...

CITY           SKY/WX    TMP DP  RH WIND       PRES   REMARKS
CHADRON        CLOUDY    57  45  64 S8        30.12F
ALLIANCE       CLOUDY    55  44  66 SE10      30.13F
SCOTTSBLUFF    CLOUDY    55  44  66 SE14      30.11F
SIDNEY         CLOUDY    54  43  66 SE14      30.15S

...WESTERN AND NORTH CENTRAL NEBRASKA...

CITY           SKY/WX    TMP DP  RH WIND       PRES   REMARKS
VALENTINE      CLEAR     64  28  25 SE9       30.15F
AINSWORTH      CLEAR     62  33  32 S6        30.16F
ONEILL         CLEAR     66  39  37 CALM      30.17S
BROKEN BOW     CLEAR     62  36  37 S9        30.17F
IMPERIAL       CLOUDY    57  43  59 SE10      30.17S
NORTH PLATTE   MOCLDY    59  42  53 S7        30.17S
MCCOOK         MOCLDY    60  41  49 SE8       30.17S

...EASTERN NEBRASKA...

CITY           SKY/WX    TMP DP  RH WIND       PRES   REMARKS
NORFOLK        CLEAR     68  37  32 N3        30.15F
SO SIOUX CITY  CLEAR     72  34  24 W9        30.12S
TEKAMAH        CLEAR     71  39  31 W9        30.13S
COLUMBUS       CLEAR     66  36  32 SW7       30.20S
ALBION         CLEAR     65  37  35 SW5       30.17F
OMAHA EPPLEY   PTCLDY    70  39  32 W6        30.14S
OFFUTT AFB     CLEAR     68  38  32 W7        30.14S
MILLARD        CLEAR     70  39  32 SW3       30.15S
LINCOLN        CLEAR     67  38  34 SW6       30.18S
NEBRASKA CITY  CLEAR     64  36  36 W7        30.17S
BEATRICE       CLEAR     65  38  36 CALM      30.18S
FALLS CITY     CLEAR     65  43  44 W6        30.17S

...NORTHERN KANSAS...

CITY           SKY/WX    TMP DP  RH WIND       PRES   REMARKS
GOODLAND       CLOUDY    54  44  69 S15       30.17S
HILL CITY      MOCLDY    59  42  53 SE7       30.19R
NORTON         CLEAR     59  37  44 SE8       30.17S
PHILLIPSBURG   CLEAR     63  43  48 E6        30.18S
SMITH CENTER   CLEAR     59  41  51 SE6       30.19S
HAYS           CLOUDY    59  41  51 S9        30.20R
RUSSELL        MOCLDY    60  44  55 S9        30.18S
CONCORDIA      PTCLDY    62  41  46 SE5       30.19F
SALINA         PTCLDY    64  42  44 SE5       30.20F
TOPEKA         CLEAR     66  42  41 SE3       30.20S



USA.gov is the U.S. government's official web portal to all federal, state and local government web resources and services.